View from above orbital plane
|
View from above satellite
|
Ground track
|
The orbit data is extracted from the following two-line orbital elements,
1 42065U 17011B 21014.26613402 0.00000000 00000-0 00000-0 0 02
2 42065 63.4408 151.5222 0009148 95.8482 264.1518 13.40820150 01
Epoch (UTC): | 14 January 2021 06:23:13 |
Eccentricity: | 0.0009148 |
inclination: | 63.4408° |
perigee height: | 1099 km |
apogee height: | 1113 km |
right ascension of ascending node: | 151.5222° |
argument of perigee: | 95.8482° |
revolutions per day: | 13.40820150 |
mean anomaly at epoch: | 264.1518° |
orbit number at epoch: | 0 |
The dashed part of the orbit path shows where the satellite is in the earth's shadow,
|
|